| time (UTC) | temp F | wind direction | speed MPH | gust MPH | rain 1hr in | rain 24hr in | rain mn in | humidity % | barometer mb |
| 20260507043041 | 73 | 96 | 2.0 | 7.0 | 0.00 | 0.00 | 0.00 | 83 | 1016.0 |
| 20260507041539 | 73 | 113 | 1.0 | 6.0 | 0.00 | 0.00 | 0.00 | 83 | 1015.9 |
| 20260507040043 | 73 | 150 | 1.0 | 8.0 | 0.00 | 0.00 | 0.00 | 83 | 1016.0 |
| 20260507034535 | 73 | 123 | 1.0 | 8.0 | 0.00 | 0.00 | 0.00 | 84 | 1016.2 |
| 20260507033036 | 73 | 109 | 3.0 | 6.0 | 0.00 | 0.00 | 0.00 | 84 | 1016.3 |
| 20260507031530 | 73 | 120 | 3.0 | 8.0 | 0.00 | 0.00 | 0.00 | 85 | 1016.4 |
| 20260507030030 | 73 | 139 | 3.0 | 7.0 | 0.00 | 0.00 | 0.00 | 84 | 1016.2 |
| 20260507024526 | 73 | 127 | 0.0 | 6.0 | 0.00 | 0.00 | 0.00 | 84 | 1016.2 |
| 20260507023028 | 73 | 117 | 5.0 | 9.0 | 0.00 | 0.00 | 0.00 | 84 | 1016.1 |
| 20260507021523 | 74 | 120 | 4.0 | 7.0 | 0.00 | 0.00 | 0.00 | 83 | 1016.2 |
| 20260507020025 | 74 | 70 | 4.0 | 7.0 | 0.00 | 0.00 | 0.00 | 82 | 1016.1 |
| 20260507014521 | 74 | 108 | 4.0 | 8.0 | 0.00 | 0.00 | 0.00 | 82 | 1016.0 |
| 20260507013028 | 74 | 106 | 4.0 | 10.0 | 0.00 | 0.00 | 0.00 | 83 | 1015.8 |
| 20260507011533 | 75 | 115 | 2.0 | 8.0 | 0.00 | 0.00 | 0.00 | 82 | 1015.7 |
| 20260507010019 | 75 | 107 | 2.0 | 8.0 | 0.00 | 0.00 | 0.00 | 82 | 1015.5 |
| 20260507004518 | 75 | 107 | 5.0 | 9.0 | 0.00 | 0.00 | 0.00 | 81 | 1015.3 |
| 20260507003019 | 76 | 95 | 4.0 | 8.0 | 0.00 | 0.00 | 0.00 | 78 | 1015.1 |
| 20260507001516 | 77 | 145 | 2.0 | 8.0 | 0.00 | 0.00 | 0.00 | 77 | 1014.9 |
| 20260507000016 | 77 | 125 | 4.0 | 7.0 | 0.00 | 0.00 | 0.00 | 77 | 1014.7 |
| 20260506234515 | 78 | 61 | 5.0 | 11.0 | 0.00 | 0.00 | 0.00 | 76 | 1014.5 |
| 20260506233015 | 78 | 148 | 4.0 | 12.0 | 0.00 | 0.00 | 0.00 | 75 | 1014.4 |
| 20260506231514 | 79 | 128 | 4.0 | 9.0 | 0.00 | 0.00 | 0.00 | 73 | 1014.1 |
| 20260506230013 | 80 | 188 | 4.0 | 9.0 | 0.00 | 0.00 | 0.00 | 71 | 1013.8 |
| 20260506224523 | 81 | 107 | 1.0 | 9.0 | 0.00 | 0.00 | 0.00 | 69 | 1013.5 |
| 20260506223012 | 81 | 70 | 3.0 | 9.0 | 0.00 | 0.00 | 0.00 | 65 | 1013.3 |
| 20260506221511 | 82 | 83 | 7.0 | 13.0 | 0.00 | 0.00 | 0.00 | 62 | 1013.1 |
| 20260506220010 | 82 | 70 | 5.0 | 8.0 | 0.00 | 0.00 | 0.00 | 60 | 1013.1 |
| 20260506214509 | 83 | 120 | 3.0 | 9.0 | 0.00 | 0.00 | 0.00 | 59 | 1013.0 |
| 20260506213013 | 83 | 157 | 3.0 | 11.0 | 0.00 | 0.00 | 0.00 | 58 | 1012.8 |
| 20260506211511 | 84 | 116 | 2.0 | 10.0 | 0.00 | 0.00 | 0.00 | 56 | 1012.5 |
| 20260506210007 | 83 | 131 | 4.0 | 12.0 | 0.00 | 0.00 | 0.00 | 56 | 1012.4 |
| 20260506204507 | 85 | 104 | 4.0 | 13.0 | 0.00 | 0.00 | 0.00 | 53 | 1012.2 |
| 20260506203005 | 85 | 128 | 2.0 | 8.0 | 0.00 | 0.00 | 0.00 | 52 | 1012.3 |
| 20260506201503 | 84 | 159 | 5.0 | 10.0 | 0.00 | 0.00 | 0.00 | 53 | 1012.5 |
| 20260506200001 | 85 | 125 | 5.0 | 11.0 | 0.00 | 0.00 | 0.00 | 53 | 1012.7 |
| 20260506194601 | 85 | 53 | 5.0 | 11.0 | 0.00 | 0.00 | 0.00 | 53 | 1012.7 |
| 20260506193058 | 85 | 101 | 3.0 | 10.0 | 0.00 | 0.00 | 0.00 | 52 | 1012.9 |
| 20260506191604 | 85 | 156 | 3.0 | 11.0 | 0.00 | 0.00 | 0.00 | 52 | 1013.1 |
| 20260506190057 | 85 | 110 | 4.0 | 11.0 | 0.00 | 0.00 | 0.00 | 52 | 1013.3 |
| 20260506184558 | 85 | 155 | 3.0 | 10.0 | 0.00 | 0.00 | 0.00 | 52 | 1013.5 |
| 20260506183049 | 85 | 112 | 2.0 | 7.0 | 0.00 | 0.00 | 0.00 | 51 | 1013.6 |
| 20260506181546 | 84 | 74 | 4.0 | 11.0 | 0.00 | 0.00 | 0.00 | 52 | 1013.9 |
| 20260506180046 | 84 | 77 | 4.0 | 9.0 | 0.00 | 0.00 | 0.00 | 51 | 1014.2 |
| 20260506174541 | 84 | 259 | 2.0 | 9.0 | 0.00 | 0.00 | 0.00 | 51 | 1014.5 |
| 20260506173050 | 84 | 212 | 3.0 | 11.0 | 0.00 | 0.00 | 0.00 | 52 | 1014.9 |
| 20260506171538 | 83 | 131 | 2.0 | 13.0 | 0.00 | 0.00 | 0.00 | 52 | 1014.9 |
| 20260506170035 | 83 | 98 | 4.0 | 12.0 | 0.00 | 0.00 | 0.00 | 53 | 1015.3 |
| 20260506164531 | 82 | 108 | 5.0 | 10.0 | 0.00 | 0.00 | 0.00 | 54 | 1015.5 |
| 20260506163053 | 83 | 126 | 5.0 | 9.0 | 0.00 | 0.00 | 0.00 | 53 | 1016.0 |
| 20260506161528 | 82 | 39 | 2.0 | 12.0 | 0.00 | 0.00 | 0.00 | 58 | 1016.3 |
| 20260506160026 | 81 | 93 | 5.0 | 13.0 | 0.00 | 0.00 | 0.00 | 59 | 1016.4 |
| 20260506154531 | 81 | 56 | 3.0 | 10.0 | 0.00 | 0.00 | 0.00 | 59 | 1016.6 |
| 20260506153027 | 81 | 128 | 5.0 | 12.0 | 0.00 | 0.00 | 0.00 | 58 | 1016.8 |
| 20260506151524 | 80 | 194 | 5.0 | 11.0 | 0.00 | 0.00 | 0.00 | 59 | 1016.8 |
| 20260506150021 | 81 | 110 | 4.0 | 10.0 | 0.00 | 0.00 | 0.00 | 59 | 1016.9 |
| 20260506144518 | 79 | 89 | 3.0 | 10.0 | 0.00 | 0.00 | 0.00 | 63 | 1017.0 |
| 20260506143016 | 79 | 105 | 4.0 | 10.0 | 0.00 | 0.00 | 0.00 | 65 | 1017.1 |
| 20260506141513 | 77 | 139 | 6.0 | 14.0 | 0.00 | 0.00 | 0.00 | 68 | 1017.2 |
| 20260506140019 | 77 | 143 | 2.0 | 11.0 | 0.00 | 0.00 | 0.00 | 69 | 1017.5 |
| 20260506134510 | 77 | 133 | 4.0 | 10.0 | 0.00 | 0.00 | 0.00 | 72 | 1017.5 |
| 20260506133006 | 76 | 61 | 5.0 | 11.0 | 0.00 | 0.00 | 0.00 | 73 | 1017.3 |
| 20260506131505 | 75 | 123 | 5.0 | 10.0 | 0.00 | 0.00 | 0.00 | 74 | 1017.4 |
| 20260506130005 | 75 | 89 | 5.0 | 11.0 | 0.00 | 0.00 | 0.00 | 73 | 1017.4 |
| 20260506124503 | 75 | 156 | 2.0 | 11.0 | 0.00 | 0.00 | 0.00 | 75 | 1017.2 |
| 20260506123002 | 75 | 75 | 5.0 | 9.0 | 0.00 | 0.00 | 0.00 | 75 | 1016.9 |
| 20260506121613 | 75 | 104 | 1.0 | 8.0 | 0.00 | 0.00 | 0.00 | 74 | 1016.7 |
| 20260506120056 | 74 | 107 | 2.0 | 7.0 | 0.00 | 0.00 | 0.00 | 76 | 1016.6 |
| 20260506114554 | 74 | 68 | 2.0 | 4.0 | 0.00 | 0.00 | 0.00 | 74 | 1016.5 |
| 20260506113051 | 73 | 101 | 2.0 | 5.0 | 0.00 | 0.00 | 0.00 | 76 | 1016.2 |
| 20260506111548 | 72 | 55 | 3.0 | 4.0 | 0.00 | 0.00 | 0.00 | 78 | 1016.1 |
| 20260506110046 | 70 | 5 | 0.0 | 4.0 | 0.00 | 0.00 | 0.00 | 79 | 1015.9 |
| 20260506104547 | 0 | 0.0 | 0.0 | 0.00 | 0.00 | 0.00 | 1015.8 | ||
| 20260506103040 | 0 | 0.0 | 0.0 | 0.00 | 0.00 | 0.00 | 1015.6 | ||
| 20260506101536 | 0 | 0.0 | 0.0 | 0.00 | 0.00 | 0.00 | 1015.4 | ||
| 20260506100034 | 0 | 0.0 | 0.0 | 0.00 | 0.00 | 0.00 | 1015.5 | ||
| 20260506094526 | 0 | 0.0 | 0.0 | 0.00 | 0.00 | 0.00 | 1015.4 | ||
| 20260506093023 | 0 | 0.0 | 0.0 | 0.00 | 0.00 | 0.00 | 1015.2 | ||
| 20260506091518 | 0 | 0.0 | 0.0 | 0.00 | 0.00 | 0.00 | 1015.2 | ||
| 20260506090014 | 0 | 0.0 | 0.0 | 0.00 | 0.00 | 0.00 | 1015.2 | ||
| 20260506084510 | 0 | 0.0 | 0.0 | 0.00 | 0.00 | 0.00 | 1015.0 | ||
| 20260506083014 | 0 | 0.0 | 0.0 | 0.00 | 0.00 | 0.00 | 1015.0 | ||
| 20260506081616 | 0 | 0.0 | 0.0 | 0.00 | 0.00 | 0.00 | 1014.8 | ||
| 20260506073048 | 0 | 0.0 | 0.0 | 0.00 | 0.00 | 0.00 | 1014.9 | ||
| 20260506071543 | 0 | 0.0 | 0.0 | 0.00 | 0.00 | 0.00 | 1014.9 | ||
| 20260506061534 | 71 | 135 | 1.0 | 4.0 | 0.00 | 0.00 | 0.00 | 80 | 1015.0 |
| 20260506044522 | 71 | 100 | 2.0 | 5.0 | 0.00 | 0.00 | 0.00 | 81 | 1016.1 |